Grand Canyon, AZ

11:15 PM MST on August 28, 2016 (GMT -0700)
Grand Canyon National Park

Weather History for KGCN - April, 2013

Change the Weather History Date:

Saturday, April 27, 2013

  Actual Average Record
Temperature  
Mean Temperature 48 °F -  
Max Temperature 70 °F 60 °F 77 °F (1992)
Min Temperature 25 °F 25 °F 8 °F (1984)
Degree Days  
Heating Degree Days 18    
Moisture  
Dew Point 4 °F    
Average Humidity 22    
Maximum Humidity 45    
Minimum Humidity 6    
Precipitation  
Precipitation 0.00 in - - ()
Sea Level Pressure  
Sea Level Pressure 30.15 in    
Wind  
Wind Speed 3 mph (NNE)    
Max Wind Speed 12 mph    
Max Gust Speed 22 mph    
Visibility 10 miles    
Events      
Averages and records for this station are not official NWS values.
T = Trace of Precipitation, MM = Missing Value Source: NWS Daily Summary

Daily Weather History Graph

Daily Weather History Graph

Search for Another Location

Airport or City:

Trip Planner

Search our weather history database for the weather conditions in past years. The results will help you decide how hot, cold, wet, or windy it might be!

Date:

Astronomy

Apr. 27, 2013 Rise Set
Actual Time 5:40 AM MST 7:12 PM MST
Civil Twilight 5:13 AM MST 7:39 PM MST
Nautical Twilight 4:40 AM MST 8:12 PM MST
Astronomical Twilight 4:06 AM MST 8:47 PM MST
Moon 9:42 PM MST (4/27) 7:05 AM MST (4/27)
Length of Visible Light 14h 26m
Length of Day
13h 32m
Waning Gibbous, 95% of the Moon is Illuminated
Apr 27
Waning Gibbous
May 2
Last Quarter
May 9
New
May 17
First Quarter
May 24
Full

Hourly Weather History & Observations

Time (MST) Temp. Windchill Dew Point Humidity Pressure Visibility Wind Dir Wind Speed Gust Speed Precip Events Conditions
12:54 AM 28.0 °F - 7.0 °F 41% 30.20 in 10.0 mi Calm Calm - N/A   Clear
1:54 AM 28.9 °F 22.8 °F 7.0 °F 40% 30.19 in 10.0 mi NE 5.8 mph - N/A   Clear
2:54 AM 27.0 °F - 7.0 °F 43% 30.19 in 10.0 mi Calm Calm - N/A   Clear
3:54 AM 26.1 °F - 7.0 °F 44% 30.20 in 10.0 mi Calm Calm - N/A   Clear
4:54 AM 25.0 °F - 6.1 °F 45% 30.20 in 10.0 mi Calm Calm - N/A   Clear
5:54 AM 25.0 °F - 6.1 °F 45% 30.22 in 10.0 mi Calm Calm - N/A   Clear
6:54 AM 36.0 °F - 9.0 °F 33% 30.21 in 10.0 mi Calm Calm - N/A   Clear
7:54 AM 60.1 °F - 10.0 °F 14% 30.18 in 10.0 mi North 3.5 mph - N/A   Clear
8:54 AM 62.1 °F - 6.1 °F 11% 30.19 in 10.0 mi North 9.2 mph 18.4 mph N/A   Clear
9:54 AM 64.9 °F - 7.0 °F 10% 30.19 in 10.0 mi NNW 8.1 mph 17.3 mph N/A   Clear
10:54 AM 64.9 °F - 3.0 °F 9% 30.19 in 10.0 mi NW 10.4 mph 21.9 mph N/A   Clear
11:54 AM 66.9 °F - -5.1 °F 6% 30.17 in 10.0 mi West 11.5 mph 17.3 mph N/A   Clear
12:54 PM 68.0 °F - -0.0 °F 7% 30.15 in 10.0 mi Calm Calm - N/A   Clear
1:54 PM 70.0 °F - 1.0 °F 7% 30.12 in 10.0 mi NNE 9.2 mph - N/A   Clear
2:54 PM 68.0 °F - -2.9 °F 6% 30.11 in 10.0 mi Calm Calm - N/A   Clear
3:54 PM 70.0 °F - -2.0 °F 6% 30.10 in 10.0 mi Variable 6.9 mph - N/A   Clear
4:54 PM 70.0 °F - -2.0 °F 6% 30.10 in 10.0 mi Variable 5.8 mph - N/A   Clear
5:54 PM 68.0 °F - -2.0 °F 6% 30.10 in 10.0 mi NE 10.4 mph - N/A   Clear
6:54 PM 57.0 °F - 3.9 °F 12% 30.09 in 10.0 mi Calm Calm - N/A   Clear
7:54 PM 42.1 °F 39.2 °F 6.1 °F 23% 30.07 in 10.0 mi NE 4.6 mph - N/A   Clear
8:54 PM 39.0 °F - 5.0 °F 24% 30.08 in 10.0 mi Calm Calm - N/A   Clear
9:54 PM 35.1 °F 32.2 °F 3.0 °F 26% 30.10 in 10.0 mi ENE 3.5 mph - N/A   Clear
10:54 PM 33.1 °F - 3.0 °F 28% 30.10 in 10.0 mi Calm Calm - N/A   Clear
11:54 PM 32.0 °F - 3.9 °F 31% 30.09 in 10.0 mi Calm Calm - N/A   Clear